Content
SEND FEEDBACK

Daily
Averages
Monthly
Summary
United States of America

EARTH CITY, MISSOURI


Home > North America > United States > Missouri
Elevation: 145 meters     Latitude: 38 46N     Longitude: 090 30W

WEATHER
 
SELECT A DAY
Number of Records: 206,532;   Date Range: 1/1/95 - 10/21/14
 
SHARE

PRINT THIS DATA

[ ← Previous Day ]
WEATHER ALMANAC - 25 MAY, 2013
[ Next Day → ]
[ °F ]   °C
Weather ElementAverageHighLow
Temperature17.2 °C21.1 °C (6:51 pm)12.8 °C (3:51 am)
Dewpoint9.8 °C12.8 °C (2:51 pm)6.1 °C (2:51 am)
Humidity62.4 %81 % (2:51 pm)45 % (10:51 am)
Barometer1024 hPa1027.4 hPa (6:51 am)1020.7 hPa (6:51 pm)
Wind Speed14.2 km/h27.8 km/h (3:51 pm)
Wind Gust35.2 km/h (3:51 pm)
Weather ElementAverage
Visibility15.8 km
Wind DirectionESE (96.8 °)

Weather ElementTotal
Precipitation3.05 mm
Heating Degree Days1.4 (Base 18.3)
Growing Degree Days6.9 (Base 10)
Averaged from 25 records on 25 May, 2013
WEATHER CONDITIONS BREAKOUT
WIND DIRECTION BREAKOUT
WEATHER BY HOUR - 25 MAY, 2013
[ °F ]   °C
Local TimeTemperatureDewpointHumidityBarometerVisibilityWind DirectionWind SpeedGust SpeedPrecipitationEventsConditions
2:51 AM13.3 °C6.1 °C62 %1025.1 hPa16.1 kmCalmScattered Clouds
3:51 AM12.8 °C6.1 °C64 %1024 hPa16.1 kmSouth (170°)11.1 km/hMostly Cloudy
4:51 AM13.3 °C6.7 °C64 %1025.1 hPa16.1 kmCalmMostly Cloudy
5:51 AM13.9 °C6.7 °C62 %1025.7 hPa16.1 kmSSE (160°)9.3 km/hMostly Cloudy
6:51 AM13.9 °C7.2 °C64 %1027.4 hPa16.1 kmNE (40°)5.6 km/h0 mmRainLight Rain
7:51 AM13.9 °C9.4 °C74 %1027.4 hPa16.1 kmEast (90°)7.4 km/h0 mmMostly Cloudy
8:51 AM16.7 °C8.9 °C60 %1026.4 hPa16.1 kmESE (120°)18.5 km/hMostly Cloudy
9:51 AM18.9 °C7.2 °C47 %1026.1 hPa16.1 kmSE (140°)22.2 km/hMostly Cloudy
10:51 AM18.9 °C6.7 °C45 %1026.1 hPa16.1 kmSE (140°)22.2 km/hOvercast
11:51 AM18.3 °C7.2 °C48 %1026.4 hPa16.1 kmESE (120°)14.8 km/hOvercast
12:51 PM17.2 °C10 °C63 %1026.1 hPa16.1 kmEast (100°)14.8 km/h0 mmRainLight Rain
1:12 PM17 °C11 °C68 %1026.1 hPa16.1 kmENE (60°)13 km/h0.25 mmRain-ThunderstormLight Thunderstorms and Rain
1:51 PM15.6 °C12.2 °C80 %1026.4 hPa11.3 kmNE (40°)14.8 km/h1.27 mmRain-ThunderstormLight Thunderstorms and Rain
2:25 PM16 °C12 °C77 %1024.7 hPa14.5 kmEast (100°)20.4 km/h0.76 mmRainLight Rain
2:51 PM16.1 °C12.8 °C81 %1024.7 hPa14.5 kmESE (110°)20.4 km/h0.76 mmOvercast
3:51 PM19.4 °C11.1 °C59 %1022.7 hPa16.1 kmSE (140°)27.8 km/h35.2 km/hMostly Cloudy
4:51 PM20.6 °C10.6 °C53 %1022 hPa16.1 kmSE (140°)22.2 km/h29.6 km/hMostly Cloudy
5:51 PM20.6 °C11.1 °C54 %1021 hPa16.1 kmSSE (160°)16.7 km/hMostly Cloudy
6:51 PM21.1 °C10.6 °C51 %1020.7 hPa16.1 kmSSE (150°)11.1 km/hMostly Cloudy
7:51 PM20 °C11.7 °C59 %1020.7 hPa16.1 kmNorthMostly Cloudy
7:55 PM20 °C12 °C60 %1021 hPa16.1 kmEast (90°)9.3 km/hOvercast
8:51 PM19.4 °C11.7 °C61 %1020.7 hPa16.1 kmEast (100°)11.1 km/hOvercast
9:51 PM19.4 °C11.7 °C61 %1021.7 hPa16.1 kmEast (80°)13 km/hOvercast
10:51 PM17.2 °C11.7 °C70 %1021.7 hPa16.1 kmEast (80°)13 km/hPartly Cloudy
11:51 PM16.1 °C11.1 °C72 %1022.4 hPa16.1 kmEast (90°)20.4 km/hPartly Cloudy
Hourly data recorded from KSTL, located 0 kilometers away from Earth City, Missouri







STORIES FROM OUR PARTNERS